Location: ??
(35.1715°N, 139.6450°E)
Time: 17:19:15
(UTC+00:00)

USA 281 - Pass Details

Date: 05 August 2024
Orbit: 1078 x 1081 km, 106.0° (Epoch: 16 September)

Event Time Altitude Azimuth Distance (km) Brightness Sun altitude
Exits shadow 15:06:57 42° 44° (NE) 1,492 4.1 -37.9°
Drops below altitude 10° 15:12:22 10° 352° (N) 2,924 6.2 -37.8°
Sets 15:14:59 0° 346° (NNW) 3,884 6.9 -37.7°
